When you browse on this site, cookies collect data to enhance your experience and personalize the content and advertising you see.
Visit our Privacy Policy to learn more. By continuing to use the site, you agree to this use of cookies and data.
  • Em Portugal
  • Lista de países
  • Para 7 dias
  • Temperatura da água
  • Mapa do tempo
  • Widgets de tempo
  • user-avatar
    Iniciar Sessão

    Previsão horária em Mansoa

    Hoje, 22 Fevereiro, Sábado

    Tempo Temperatura Precipitação Vento Pressão Humidade
    00:00 +24°C° 0 mm 1 m/s 756 mmHg 62%
    01:00 +23°C° 0 mm 1 m/s 755 mmHg 61%
    02:00 +22°C° 0 mm 1 m/s 755 mmHg 60%
    03:00 +22°C° 0 mm 1 m/s 755 mmHg 56%
    04:00 +22°C° 0 mm 1 m/s 755 mmHg 52%
    05:00 +21°C° 0 mm 2 m/s 755 mmHg 46%
    06:00 +24°C° 0 mm 2 m/s 756 mmHg 40%
    07:00 +25°C° 0 mm 2 m/s 757 mmHg 34%
    08:00 +27°C° 0 mm 2 m/s 757 mmHg 28%
    09:00 +31°C° 0 mm 2 m/s 757 mmHg 23%
    10:00 +35°C° 0 mm 3 m/s 757 mmHg 17%
    11:00 +38°C° 0 mm 3 m/s 757 mmHg 12%
    12:00 +40°C° 0 mm 3 m/s 756 mmHg 10%
    13:00 +43°C° 0 mm 3 m/s 755 mmHg 9%
    14:00 +45°C° 0 mm 2 m/s 754 mmHg 7%
    15:00 +42°C° 0 mm 2 m/s 754 mmHg 10%
    16:00 +41°C° 0 mm 2 m/s 754 mmHg 12%
    17:00 +40°C° 0 mm 2 m/s 754 mmHg 14%
    18:00 +36°C° 0 mm 2 m/s 754 mmHg 23%
    19:00 +32°C° 0 mm 2 m/s 755 mmHg 31%
    20:00 +28°C° 0 mm 2 m/s 755 mmHg 40%
    21:00 +27°C° 0 mm 2 m/s 755 mmHg 43%
    22:00 +26°C° 0 mm 2 m/s 756 mmHg 46%
    23:00 +25°C° 0 mm 2 m/s 756 mmHg 50%

    Amanhã, 23 Fevereiro, Domingo

    Tempo Temperatura Precipitação Vento Pressão Humidade
    00:00 +24°C° 0 mm 1 m/s 756 mmHg 53%
    01:00 +24°C° 0 mm 1 m/s 756 mmHg 56%
    02:00 +23°C° 0 mm 1 m/s 756 mmHg 59%
    03:00 +23°C° 0 mm 1 m/s 756 mmHg 58%
    04:00 +23°C° 0 mm 1 m/s 756 mmHg 57%
    05:00 +22°C° 0 mm 1 m/s 756 mmHg 56%
    06:00 +24°C° 0 mm 1 m/s 756 mmHg 49%
    07:00 +26°C° 0 mm 1 m/s 757 mmHg 42%
    08:00 +27°C° 0 mm 1 m/s 758 mmHg 35%
    09:00 +30°C° 0 mm 2 m/s 758 mmHg 29%
    10:00 +32°C° 0 mm 2 m/s 758 mmHg 23%
    11:00 +36°C° 0 mm 2 m/s 757 mmHg 17%
    12:00 +38°C° 0 mm 2 m/s 756 mmHg 15%
    13:00 +40°C° 0 mm 1 m/s 756 mmHg 13%
    14:00 +42°C° 0 mm 1 m/s 755 mmHg 11%
    15:00 +41°C° 0 mm 1 m/s 754 mmHg 12%
    16:00 +40°C° 0 mm 1 m/s 754 mmHg 14%
    17:00 +39°C° 0 mm 1 m/s 754 mmHg 16%
    18:00 +36°C° 0 mm 2 m/s 755 mmHg 26%
    19:00 +32°C° 0 mm 2 m/s 755 mmHg 36%
    20:00 +29°C° 0 mm 3 m/s 756 mmHg 47%
    21:00 +28°C° 0 mm 2 m/s 756 mmHg 47%
    22:00 +28°C° 0 mm 2 m/s 757 mmHg 48%
    23:00 +28°C° 0 mm 2 m/s 757 mmHg 48%

    Depois de amanhã, 24 Fevereiro, Segunda-feira

    Tempo Temperatura Precipitação Vento Pressão Humidade
    00:00 +27°C° 0 mm 2 m/s 756 mmHg 51%
    01:00 +26°C° 0 mm 2 m/s 756 mmHg 53%
    02:00 +25°C° 0 mm 2 m/s 756 mmHg 56%
    03:00 +25°C° 0 mm 2 m/s 756 mmHg 55%
    04:00 +25°C° 0 mm 1 m/s 755 mmHg 55%
    05:00 +24°C° 0 mm 1 m/s 755 mmHg 55%
    06:00 +26°C° 0 mm 1 m/s 756 mmHg 48%
    07:00 +28°C° 0 mm 1 m/s 756 mmHg 41%
    08:00 +27°C° 0 mm 0 m/s 757 mmHg 35%
    09:00 +33°C° 0 mm 1 m/s 757 mmHg 29%
    10:00 +37°C° 0 mm 2 m/s 757 mmHg 24%
    11:00 +40°C° 0 mm 3 m/s 756 mmHg 18%
    12:00 +43°C° 0 mm 3 m/s 755 mmHg 16%
    13:00 +44°C° 0 mm 3 m/s 755 mmHg 14%
    14:00 +46°C° 0 mm 3 m/s 754 mmHg 12%
    15:00 +44°C° 0 mm 3 m/s 753 mmHg 15%
    16:00 +43°C° 0 mm 3 m/s 753 mmHg 17%
    17:00 +40°C° 0 mm 3 m/s 753 mmHg 20%
    18:00 +37°C° 0 mm 3 m/s 753 mmHg 30%
    19:00 +33°C° 0 mm 3 m/s 754 mmHg 40%
    20:00 +29°C° 0 mm 2 m/s 755 mmHg 49%
    21:00 +29°C° 0 mm 2 m/s 755 mmHg 43%
    22:00 +30°C° 0 mm 2 m/s 755 mmHg 37%
    23:00 +30°C° 0 mm 3 m/s 755 mmHg 31%

    25 Fevereiro, Terça-feira

    Tempo Temperatura Precipitação Vento Pressão Humidade
    00:00 +30°C° 0 mm 3 m/s 755 mmHg 29%
    01:00 +30°C° 0 mm 3 m/s 754 mmHg 28%
    02:00 +29°C° 0 mm 3 m/s 754 mmHg 26%
    03:00 +30°C° 0 mm 3 m/s 754 mmHg 23%
    04:00 +32°C° 0 mm 4 m/s 754 mmHg 19%
    05:00 +33°C° 0 mm 5 m/s 754 mmHg 16%
    06:00 +33°C° 0 mm 6 m/s 754 mmHg 15%
    07:00 +34°C° 0 mm 7 m/s 755 mmHg 13%
    08:00 +35°C° 0 mm 7 m/s 755 mmHg 12%
    09:00 +38°C° 0 mm 7 m/s 755 mmHg 12%
    10:00 +40°C° 0 mm 7 m/s 755 mmHg 12%
    11:00 +44°C° 0 mm 6 m/s 754 mmHg 11%
    12:00 +45°C° 0 mm 6 m/s 754 mmHg 11%
    13:00 +46°C° 0 mm 5 m/s 753 mmHg 10%
    14:00 +48°C° 0 mm 5 m/s 752 mmHg 9%
    15:00 +43°C° 0 mm 5 m/s 752 mmHg 24%
    16:00 +39°C° 0 mm 6 m/s 752 mmHg 38%
    17:00 +34°C° 0 mm 6 m/s 751 mmHg 52%
    18:00 +32°C° 0 mm 5 m/s 752 mmHg 60%
    19:00 +29°C° 0 mm 3 m/s 753 mmHg 67%
    20:00 +27°C° 0 mm 2 m/s 754 mmHg 75%
    21:00 +26°C° 0 mm 2 m/s 754 mmHg 74%
    22:00 +25°C° 0 mm 1 m/s 755 mmHg 73%
    23:00 +25°C° 0 mm 1 m/s 755 mmHg 72%

    26 Fevereiro, Quarta-feira

    Tempo Temperatura Precipitação Vento Pressão Humidade
    00:00 +24°C° 0 mm 1 m/s 755 mmHg 70%
    01:00 +24°C° 0 mm 1 m/s 754 mmHg 68%
    02:00 +22°C° 0 mm 0 m/s 754 mmHg 67%
    03:00 +23°C° 0 mm 1 m/s 754 mmHg 69%
    04:00 +23°C° 0 mm 1 m/s 754 mmHg 71%
    05:00 +23°C° 0 mm 1 m/s 754 mmHg 73%
    06:00 +25°C° 0 mm 1 m/s 755 mmHg 70%
    07:00 +26°C° 0 mm 2 m/s 755 mmHg 66%
    08:00 +28°C° 0 mm 2 m/s 756 mmHg 62%
    09:00 +31°C° 0 mm 2 m/s 755 mmHg 51%
    10:00 +36°C° 0 mm 2 m/s 755 mmHg 39%
    11:00 +40°C° 0 mm 2 m/s 755 mmHg 28%
    12:00 +41°C° 0 mm 2 m/s 754 mmHg 25%
    13:00 +43°C° 0 mm 3 m/s 754 mmHg 22%
    14:00 +44°C° 0 mm 3 m/s 753 mmHg 19%
    15:00 +41°C° 0 mm 4 m/s 753 mmHg 28%
    16:00 +39°C° 0 mm 5 m/s 752 mmHg 37%
    17:00 +35°C° 0 mm 6 m/s 752 mmHg 46%
    18:00 +33°C° 0 mm 5 m/s 753 mmHg 58%
    19:00 +29°C° 0 mm 4 m/s 754 mmHg 69%
    20:00 +27°C° 0 mm 3 m/s 754 mmHg 81%
    21:00 +26°C° 0 mm 2 m/s 755 mmHg 85%
    22:00 +25°C° 0 mm 2 m/s 755 mmHg 90%
    23:00 +25°C° 0 mm 1 m/s 755 mmHg 94%

    27 Fevereiro, Quinta-feira

    Tempo Temperatura Precipitação Vento Pressão Humidade
    00:00 +24°C° 0 mm 1 m/s 755 mmHg 94%
    01:00 +24°C° 0 mm 1 m/s 755 mmHg 95%
    02:00 +24°C° 0 mm 1 m/s 755 mmHg 95%
    03:00 +23°C° 0 mm 1 m/s 755 mmHg 95%
    04:00 +23°C° 0 mm 1 m/s 755 mmHg 95%
    05:00 +23°C° 0 mm 1 m/s 755 mmHg 94%
    06:00 +25°C° 0 mm 1 m/s 756 mmHg 86%
    07:00 +27°C° 0 mm 1 m/s 756 mmHg 79%
    08:00 +28°C° 0 mm 1 m/s 757 mmHg 71%
    09:00 +32°C° 0 mm 1 m/s 757 mmHg 57%
    10:00 +36°C° 0 mm 1 m/s 757 mmHg 42%
    11:00 +41°C° 0 mm 1 m/s 757 mmHg 28%
    12:00 +41°C° 0 mm 2 m/s 756 mmHg 27%
    13:00 +42°C° 0 mm 3 m/s 755 mmHg 25%
    14:00 +42°C° 0 mm 3 m/s 754 mmHg 24%
    15:00 +40°C° 0 mm 4 m/s 754 mmHg 30%
    16:00 +37°C° 0 mm 5 m/s 754 mmHg 36%
    17:00 +35°C° 0 mm 5 m/s 753 mmHg 43%
    18:00 +33°C° 0 mm 4 m/s 754 mmHg 54%
    19:00 +30°C° 0 mm 4 m/s 754 mmHg 65%
    20:00 +27°C° 0 mm 3 m/s 755 mmHg 75%
    21:00 +26°C° 0 mm 3 m/s 755 mmHg 81%
    22:00 +25°C° 0 mm 2 m/s 756 mmHg 86%
    23:00 +24°C° 0 mm 2 m/s 756 mmHg 92%
    Mostrar mais